Find Local Weather

World > North America > United States > Florida

Gainesville, Florida Regional Weather

Lat: 29.67N, Lon: 82.34W
Wx Zone: FLZ036
Feedback
Expires:201805241600;;459046
ASUS42 KTBW 241517
RWRFL 
FLORIDA REGIONAL WEATHER ROUNDUP
NATIONAL WEATHER SERVICE TAMPA BAY RUSKIN FL
1100 AM EDT THU MAY 24 2018

NOTE: "FAIR" INDICATES FEW OR NO CLOUDS BELOW 12,000 FEET WITH NO
SIGNIFICANT WEATHER AND/OR OBSTRUCTIONS TO VISIBILITY.


FLZ011-016>038-118-127-128-134-139-239-241600-
NORTH FLORIDA
  
CITY           SKY/WX    TMP DP  RH WIND       PRES   REMARKS
MARIANNA       PTSUNNY   81  74  79 W3        30.09F                  
TALLAHASSEE    PTSUNNY   79  72  79 CALM      30.10F                  
PERRY          FAIR      84  69  61 CALM      30.10F                  
LIVE OAK       MOSUNNY   82  70  65 VRB3      30.11F                  
CROSS CITY     FAIR      85  70  61 E5        30.10F                  
LAKE CITY      FAIR      81  64  57 CALM      30.11F                  
GAINESVILLE    FAIR      86  71  60 CALM      30.13S                  
WILLISTON      SUNNY     86  75  70 CALM      30.11S HX  95           
PALATKA        FAIR      84  73  70 S3        30.11S                  
MAYPORT NAS    PTSUNNY   83  74  74 E7        30.10S                  
JACKSONVILLE   PTSUNNY   85  72  65 CALM      30.09F                  
JAX NAS        PTSUNNY   82  71  69 S6        30.11S                  
JAX CECIL      MOSUNNY   86  77  74 VRB3      30.10F HX  97           
FERNANDINA BEA FAIR      80  72  74 S3        30.09F                  
ST AUGUSTINE   FAIR      84  73  69 S7        30.11F                  
PALM COAST     MOSUNNY   81  70  69 CALM      30.11S                  

STATION/POSITION SKY/WX   TEMP    WIND        PRES    WAVE   SWELL
                          AIR SEA DIR/SP/G            HT/PER HT/PER
                          (F)     (DEG/KT/KT) (MB)    (FT/S) (FT/S)
SHELL POINT      NOT AVBL
KEATON BEACH               80     240/  5/  5 1019.4F
CEDAR KEY                  78     120/  3/  4 1019.6F
FERNANDINA                 84 80  330/  1/  2 1020.2F
30.7N   81.3W                 77                N/A     2/ 8
MAYPORT                    80 79   90/  5/  7 1019.6F
31.4N   80.9W              76 77  180/  6/  6 1019.4S   2/ 8   2/ 8
ST AUGUSTINE               77 78  140/  9/  9 1019.9S

$$

SKY/WX - Weather  TMP - Temperature  DP - Dewpoint  RH - Relative Humidity
WIND - Wind Direction/Speed PRES - Barometric Pressure